Ainsworth, NE

7:16 AM CST on December 13, 2019 (GMT -0600)
Ainsworth Municipal

Weather History for KANW - October, 2019

Change the Weather History Date:

Saturday, October 19, 2019

  Actual Average Record
Temperature  
Mean Temperature 49 °F -  
Max Temperature 63 °F 58 °F 89 °F (2003)
Min Temperature 35 °F 35 °F 21 °F (2002)
Degree Days  
Heating Degree Days 16    
Moisture  
Dew Point 32 °F    
Average Humidity 61    
Maximum Humidity 100    
Minimum Humidity 25    
Precipitation  
Precipitation 0.00 in - - ()
Sea Level Pressure  
Sea Level Pressure 29.78 in    
Wind  
Wind Speed 5 mph ()    
Max Wind Speed 9 mph    
Max Gust Speed -    
Visibility 10.0 miles    
Events      
Averages and records for this station are not official NWS values.
T = Trace of Precipitation, MM = Missing Value Source: Averaged Metar Reports

Daily Weather History Graph

Daily Weather History Graph

Search for Another Location

Airport or City:

Astronomy

Oct. 19, 2019 Rise Set
Actual Time 7:57 AM CDT 6:51 PM CDT
Civil Twilight 7:28 AM CDT 7:20 PM CDT
Nautical Twilight 6:56 AM CDT 7:52 PM CDT
Astronomical Twilight 6:23 AM CDT 8:25 PM CDT
Moon 10:56 PM CDT (10/19) 1:37 PM CDT (10/19)
Length of Visible Light 11h 51m
Length of Day
10h 54m
Waning Gibbous, 69% of the Moon is Illuminated
Oct 19
Waning Gibbous
Oct 21
Last Quarter
Oct 27
New
Nov 4
First Quarter
Nov 12
Full

Hourly Weather History & Observations

Time (CDT) Temp. Windchill Dew Point Humidity Pressure Visibility Wind Dir Wind Speed Gust Speed Precip Events Conditions
12:15 AM 40.6 °F 36.7 °F 37.0 °F 87% 29.77 in 10.0 mi WSW 5.8 mph - N/A   Clear
12:35 AM 41.0 °F 38.0 °F 38.8 °F 92% 29.77 in 10.0 mi WSW 4.6 mph - N/A   Clear
12:55 AM 39.7 °F 37.6 °F 39.2 °F 98% 29.77 in 10.0 mi SW 3.5 mph - N/A   Clear
1:15 AM 40.3 °F 35.5 °F 40.3 °F 100% 29.78 in 10.0 mi WSW 6.9 mph - N/A   Clear
1:35 AM 40.5 °F 35.8 °F 38.5 °F 93% 29.78 in 10.0 mi West 6.9 mph - N/A   Clear
1:55 AM 40.3 °F 36.3 °F 37.8 °F 91% 29.78 in 10.0 mi West 5.8 mph - N/A   Clear
2:15 AM 39.9 °F 35.8 °F 37.2 °F 90% 29.78 in 10.0 mi West 5.8 mph - N/A   Clear
2:35 AM 38.1 °F 32.3 °F 36.0 °F 92% 29.78 in 10.0 mi West 8.1 mph - N/A   Clear
2:55 AM 37.9 °F 32.7 °F 35.4 °F 91% 29.79 in 10.0 mi West 6.9 mph - N/A   Clear
3:35 AM 37.4 °F 32.8 °F 34.7 °F 90% 29.80 in 10.0 mi West 5.8 mph - N/A   Clear
3:55 AM 37.4 °F 32.8 °F 34.5 °F 89% 29.78 in 10.0 mi West 5.8 mph - N/A   Clear
4:15 AM 36.9 °F 30.7 °F 34.5 °F 91% 29.79 in 10.0 mi West 8.1 mph - N/A   Clear
4:35 AM 37.4 °F 32.1 °F 35.1 °F 91% 29.80 in 10.0 mi West 6.9 mph - N/A   Clear
4:55 AM 37.4 °F 32.1 °F 35.6 °F 93% 29.80 in 10.0 mi West 6.9 mph - N/A   Clear
5:15 AM 37.4 °F 32.1 °F 35.2 °F 92% 29.80 in 10.0 mi West 6.9 mph - N/A   Clear
5:35 AM 37.9 °F 32.7 °F 34.9 °F 89% 29.81 in 10.0 mi West 6.9 mph - N/A   Clear
5:55 AM 37.4 °F 32.1 °F 34.9 °F 91% 29.81 in 10.0 mi West 6.9 mph - N/A   Clear
6:15 AM 37.0 °F 32.4 °F 34.7 °F 91% 29.81 in 10.0 mi West 5.8 mph - N/A   Clear
6:35 AM 37.2 °F 32.6 °F 34.2 °F 89% 29.82 in 10.0 mi West 5.8 mph - N/A   Clear
6:55 AM 36.5 °F 32.7 °F 33.8 °F 90% 29.82 in 10.0 mi West 4.6 mph - N/A   Clear
7:15 AM 36.1 °F 31.4 °F 33.6 °F 91% 29.82 in 10.0 mi West 5.8 mph - N/A   Clear
7:35 AM 36.0 °F 30.3 °F 33.1 °F 89% 29.82 in 10.0 mi West 6.9 mph - N/A   Clear
7:55 AM 36.5 °F 31.0 °F 32.4 °F 85% 29.82 in 10.0 mi West 6.9 mph - N/A   Clear
8:15 AM 35.6 °F 29.9 °F 32.2 °F 87% 29.82 in 10.0 mi West 6.9 mph - N/A   Clear
8:35 AM 37.4 °F 32.1 °F 32.5 °F 83% 29.83 in 10.0 mi West 6.9 mph - N/A   Clear
8:50 AM 38.5 °F 34.1 °F 32.9 °F 80% 29.83 in 10.0 mi West 5.8 mph - N/A   Clear
9:15 AM 41.2 °F 37.3 °F 34.7 °F 78% 29.83 in 10.0 mi West 5.8 mph - N/A   Clear
9:35 AM 43.2 °F 40.5 °F 34.9 °F 73% 29.84 in 10.0 mi West 4.6 mph - N/A   Clear
9:55 AM 45.7 °F 41.5 °F 35.4 °F 67% 29.84 in 10.0 mi WNW 8.1 mph - N/A   Clear
10:15 AM 48.7 °F - 35.2 °F 60% 29.84 in 10.0 mi WNW 6.9 mph - N/A   Clear
10:35 AM 51.6 °F - 34.7 °F 52% 29.85 in 10.0 mi WNW 6.9 mph - N/A   Clear
10:55 AM 53.1 °F - 32.5 °F 46% 29.84 in 10.0 mi NW 4.6 mph - N/A   Clear
11:15 AM 55.0 °F - 32.9 °F 43% 29.84 in 10.0 mi Calm Calm - N/A   Clear
11:35 AM 56.3 °F - 31.6 °F 39% 29.84 in 10.0 mi North 3.5 mph - N/A   Clear
11:55 AM 57.2 °F - 31.5 °F 38% 29.83 in 10.0 mi Calm Calm - N/A   Clear
12:15 PM 58.5 °F - 28.8 °F 32% 29.83 in 10.0 mi North 3.5 mph - N/A   Scattered Clouds
12:35 PM 58.5 °F - 28.2 °F 32% 29.82 in 10.0 mi Calm Calm - N/A   Scattered Clouds
12:55 PM 57.6 °F - 28.8 °F 33% 29.82 in 10.0 mi NNW 4.6 mph - N/A   Mostly Cloudy
1:15 PM 60.8 °F - 28.9 °F 30% 29.81 in 10.0 mi NNW 3.5 mph - N/A   Overcast
1:35 PM 60.4 °F - 27.1 °F 28% 29.80 in 10.0 mi Calm Calm - N/A   Overcast
1:55 PM 60.4 °F - 28.2 °F 29% 29.80 in 10.0 mi Calm Calm - N/A   Scattered Clouds
2:15 PM 61.9 °F - 28.0 °F 28% 29.78 in 10.0 mi WSW 5.8 mph - N/A   Scattered Clouds
2:35 PM 61.7 °F - 28.6 °F 29% 29.77 in 10.0 mi SSW 3.5 mph - N/A   Scattered Clouds
2:55 PM 61.7 °F - 28.6 °F 29% 29.76 in 10.0 mi SSW 5.8 mph - N/A   Clear
3:15 PM 62.6 °F - 28.8 °F 28% 29.75 in 10.0 mi SW 6.9 mph - N/A   Clear
3:35 PM 62.6 °F - 28.8 °F 28% 29.74 in 7.0 mi SSW 6.9 mph - N/A   Clear
3:55 PM 62.8 °F - 29.3 °F 28% 29.74 in 10.0 mi Calm Calm - N/A   Clear
4:15 PM 63.3 °F - 28.2 °F 27% 29.74 in 10.0 mi West 9.2 mph - N/A   Clear
4:35 PM 62.8 °F - 27.9 °F 27% 29.74 in 10.0 mi WSW 3.5 mph - N/A   Clear
4:55 PM 62.8 °F - 27.1 °F 26% 29.74 in 10.0 mi SW 4.6 mph - N/A   Clear
5:15 PM 62.8 °F - 27.1 °F 26% 29.73 in 10.0 mi SSW 6.9 mph - N/A   Clear
5:35 PM 62.6 °F - 26.4 °F 25% 29.72 in 10.0 mi WSW 3.5 mph - N/A   Clear
5:55 PM 61.7 °F - 26.1 °F 26% 29.73 in 10.0 mi WSW 3.5 mph - N/A   Clear
6:15 PM 60.4 °F - 27.3 °F 28% 29.73 in 10.0 mi West 4.6 mph - N/A   Clear
6:35 PM 58.8 °F - 26.1 °F 29% 29.73 in 10.0 mi Calm Calm - N/A   Clear
6:55 PM 54.7 °F - 27.3 °F 35% 29.74 in 10.0 mi Calm Calm - N/A   Clear
7:15 PM 54.9 °F - 26.4 °F 33% 29.74 in 10.0 mi Calm Calm - N/A   Clear
7:35 PM 48.2 °F - 30.0 °F 49% 29.74 in 10.0 mi Calm Calm - N/A   Clear
7:55 PM 49.5 °F - 29.5 °F 46% 29.73 in 10.0 mi Calm Calm - N/A   Clear
8:15 PM 48.9 °F - 29.3 °F 47% 29.73 in 10.0 mi Calm Calm - N/A   Clear
8:35 PM 44.1 °F - 30.6 °F 59% 29.72 in 10.0 mi Calm Calm - N/A   Clear
8:55 PM 43.5 °F 41.9 °F 32.7 °F 66% 29.72 in 10.0 mi SE 3.5 mph - N/A   Clear
9:15 PM 42.6 °F 39.9 °F 33.1 °F 69% 29.72 in 10.0 mi SE 4.6 mph - N/A   Clear
9:35 PM 40.8 °F 36.9 °F 32.0 °F 71% 29.72 in 10.0 mi ESE 5.8 mph - N/A   Clear
9:55 PM 42.4 °F - 31.8 °F 66% 29.72 in 10.0 mi Calm Calm - N/A   Clear
10:15 PM 40.8 °F 37.8 °F 32.0 °F 71% 29.72 in 10.0 mi SSE 4.6 mph - N/A   Clear
10:35 PM 39.6 °F 36.3 °F 32.0 °F 74% 29.71 in 10.0 mi SE 4.6 mph - N/A   Clear
10:55 PM 40.1 °F 36.1 °F 30.4 °F 68% 29.71 in 10.0 mi SE 5.8 mph - N/A   Clear
11:15 PM 43.0 °F 39.5 °F 29.5 °F 59% 29.70 in 10.0 mi SE 5.8 mph - N/A   Clear
11:35 PM 42.4 °F 38.8 °F 30.0 °F 61% 29.70 in 10.0 mi SSE 5.8 mph - N/A   Clear
11:55 PM 41.4 °F 36.8 °F 31.1 °F 67% 29.70 in 10.0 mi South 6.9 mph - N/A   Clear